リニア彗星

333P/LINEAR (2016)

English version
Home page
Updated on June 6, 2020

---------------------------------------------------------------------

・ プロフィール

・ 写真集

・ 軌道要素

Epoch 2016 Apr. 2.0 TT = JDT 2457480.5                                          
T 2016 Apr. 3.89030 TT                                  Rudenko                 
q   1.1151596            (2000.0)            P               Q                  
n   0.11349781     Peri.   26.14445     -0.12205170     +0.73071993             
a   4.2248477      Node   115.56568     +0.72892620     -0.39330822             
e   0.7360474      Incl.  131.87703     +0.67362451     +0.55799375             
P   8.68                                                                        
From 626 observations 2007 Nov. 4-2017 July 27, mean residual 0".4.             

・ 星図

・ 光度変化

        H = 15.0  G = 0.15               [   ,-57]  (              〜2016年 2月 6日)
        m1 = 6.5 + 5 logΔ + 80   log r  [-57,-20]  (2016年 2月 6日〜2016年 3月14日)
        m1 = 9.5 + 5 logΔ + 30.0 log r  [-20,118]  (2016年 3月14日〜2016年 7月30日)
        H = 15.0  G = 0.15               [118,   ]  (2016年 7月30日〜              )

---------------------------------------------------------------------

軌道要素はM.P.E.C. 2020-L06に掲載されたものです。
星図はステラナビゲータ Ver.8 (アストロアーツ) で作成したものです。
光度グラフはComet for Windowsで作成したものです。

---------------------------------------------------------------------

Copyright(C) Seiichi Yoshida (comet@aerith.net). All rights reserved.